TimeCDT,TemperatureF,Dew PointF,Humidity,Sea Level PressureIn,VisibilityMPH,Wind Direction,Wind SpeedMPH,Gust SpeedMPH,PrecipitationIn,Events,Conditions,WindDirDegrees,DateUTC
12:53 AM,71.1,68.0,90,30.14,10.0,East,4.6,-,N/A,,Clear,90,2012-10-04 05:53:00
1:53 AM,70.0,66.9,90,30.14,10.0,East,4.6,-,N/A,,Clear,90,2012-10-04 06:53:00
2:18 AM,69.8,66.2,88,30.14,10.0,ENE,3.5,-,N/A,,Partly Cloudy,70,2012-10-04 07:18:00
2:53 AM,70.0,66.9,90,30.14,10.0,NE,3.5,-,N/A,,Clear,50,2012-10-04 07:53:00
3:34 AM,69.8,66.2,88,30.15,10.0,East,5.8,-,N/A,,Partly Cloudy,80,2012-10-04 08:34:00
3:53 AM,70.0,66.9,90,30.16,10.0,ENE,3.5,-,N/A,,Partly Cloudy,60,2012-10-04 08:53:00
4:53 AM,69.1,66.0,90,30.17,10.0,NE,4.6,-,N/A,,Mostly Cloudy,50,2012-10-04 09:53:00
5:12 AM,69.8,66.2,88,30.18,10.0,NE,4.6,-,N/A,,Overcast,50,2012-10-04 10:12:00
5:53 AM,69.1,66.0,90,30.18,10.0,NE,3.5,-,N/A,,Overcast,50,2012-10-04 10:53:00
6:53 AM,68.0,64.9,90,30.20,10.0,NNE,3.5,-,N/A,,Overcast,20,2012-10-04 11:53:00
7:53 AM,68.0,66.0,93,30.21,9.0,ENE,5.8,-,N/A,,Overcast,60,2012-10-04 12:53:00
8:15 AM,68.0,66.2,94,30.21,1.8,NNE,5.8,-,N/A,,Overcast,20,2012-10-04 13:15:00
8:42 AM,68.0,66.2,94,30.21,3.0,North,9.2,-,N/A,,Overcast,360,2012-10-04 13:42:00
8:53 AM,68.0,66.0,93,30.21,5.0,North,8.1,-,N/A,,Overcast,360,2012-10-04 13:53:00
9:53 AM,69.1,66.9,93,30.22,7.0,NE,5.8,-,N/A,,Overcast,40,2012-10-04 14:53:00
10:53 AM,71.1,66.9,87,30.22,10.0,NE,6.9,-,N/A,,Overcast,50,2012-10-04 15:53:00
11:53 AM,75.9,68.0,76,30.21,10.0,East,5.8,-,N/A,,Partly Cloudy,80,2012-10-04 16:53:00
12:53 PM,79.0,66.9,66,30.19,10.0,East,6.9,-,N/A,,Clear,80,2012-10-04 17:53:00
1:53 PM,82.0,64.0,54,30.16,10.0,ENE,6.9,-,N/A,,Clear,70,2012-10-04 18:53:00
2:53 PM,82.9,64.9,54,30.16,10.0,ESE,6.9,-,N/A,,Clear,110,2012-10-04 19:53:00
3:53 PM,82.0,68.0,62,30.15,10.0,ENE,5.8,-,N/A,,Clear,70,2012-10-04 20:53:00
4:53 PM,81.0,69.1,67,30.13,10.0,ENE,4.6,-,N/A,,Clear,70,2012-10-04 21:53:00
5:53 PM,78.1,70.0,76,30.13,10.0,East,5.8,-,N/A,,Clear,90,2012-10-04 22:53:00
6:53 PM,75.9,70.0,82,30.14,10.0,Calm,Calm,-,N/A,,Clear,0,2012-10-04 23:53:00
7:53 PM,73.9,70.0,87,30.16,10.0,Calm,Calm,-,N/A,,Clear,0,2012-10-05 00:53:00
8:53 PM,75.0,71.1,87,30.16,10.0,East,3.5,-,N/A,,Clear,80,2012-10-05 01:53:00
9:53 PM,75.0,70.0,84,30.17,10.0,East,4.6,-,N/A,,Clear,90,2012-10-05 02:53:00
10:53 PM,73.9,71.1,91,30.17,10.0,Calm,Calm,-,N/A,,Clear,0,2012-10-05 03:53:00
11:53 PM,73.9,71.1,91,30.15,10.0,Calm,Calm,-,N/A,,Clear,0,2012-10-05 04:53:00